This is the latest recevied weather packets stored in our database for station/object VK3MAK-1. If no packets are shown the sender has not sent any weather packets the latest 10 day(s).
| Time | Temp. | Humidity | Pressure | Rain* | Wind** | Luminosity | Snow |
|---|---|---|---|---|---|---|---|
| 1777702804 | 22.22° C | 46% | 1011.6 hPa | 0 mm | 7.15 m/s, 0° | - | - |
| 1777702203 | 22.22° C | 46% | 1011.6 hPa | 0 mm | 7.15 m/s, 0° | - | - |
| 1777701604 | 22.22° C | 44% | 1011.6 hPa | 0 mm | 7.15 m/s, 0° | - | - |
| 1777701003 | 22.22° C | 44% | 1011.6 hPa | 0 mm | 7.15 m/s, 0° | - | - |
| 1777700404 | 22.22° C | 44% | 1011.6 hPa | 0 mm | 7.15 m/s, 0° | - | - |
| 1777699804 | 22.78° C | 43% | 1012 hPa | 0 mm | 8.49 m/s, 0° | - | - |
| 1777699204 | 22.78° C | 43% | 1012 hPa | 0 mm | 8.49 m/s, 0° | - | - |
| 1777698604 | 22.78° C | 43% | 1012 hPa | 0 mm | 8.49 m/s, 0° | - | - |
| 1777698004 | 23.89° C | 35% | 1011.9 hPa | 0 mm | 8.49 m/s, 0° | - | - |
| 1777697404 | 23.89° C | 35% | 1011.9 hPa | 0 mm | 8.49 m/s, 0° | - | - |
| 1777696804 | 23.89° C | 35% | 1011.9 hPa | 0 mm | 8.49 m/s, 0° | - | - |
| 1777696204 | 24.44° C | 34% | 1012 hPa | 0 mm | 9.83 m/s, 0° | - | - |
| 1777695603 | 24.44° C | 34% | 1012 hPa | 0 mm | 9.83 m/s, 0° | - | - |
| 1777695004 | 24.44° C | 34% | 1012 hPa | 0 mm | 9.83 m/s, 0° | - | - |
| 1777694403 | 24.44° C | 33% | 1012.3 hPa | 0 mm | 8.05 m/s, 0° | - | - |
| 1777693804 | 24.44° C | 33% | 1012.3 hPa | 0 mm | 8.05 m/s, 0° | - | - |
| 1777693204 | 24.44° C | 33% | 1012.3 hPa | 0 mm | 8.05 m/s, 0° | - | - |
| 1777692604 | 23.89° C | 34% | 1012.7 hPa | 0 mm | 9.39 m/s, 0° | - | - |
| 1777692003 | 23.89° C | 34% | 1012.7 hPa | 0 mm | 9.39 m/s, 0° | - | - |
| 1777691403 | 23.89° C | 34% | 1012.7 hPa | 0 mm | 9.39 m/s, 0° | - | - |
| 1777690804 | 24.44° C | 33% | 1012.6 hPa | 0 mm | 9.39 m/s, 0° | - | - |
| 1777690203 | 25° C | 33% | 1013.2 hPa | 0 mm | 7.6 m/s, 0° | - | - |
| 1777689603 | 25° C | 33% | 1013.2 hPa | 0 mm | 7.6 m/s, 0° | - | - |
| 1777689005 | 24.44° C | 33% | 1013.9 hPa | 0 mm | 8.94 m/s, 0° | - | - |
| 1777688404 | 24.44° C | 33% | 1013.9 hPa | 0 mm | 8.94 m/s, 0° | - | - |
* Rain latest hour (hover to see other rain measurements)
** Current wind speed in m/s (hover to see current wind gust speed)